TimeAKST,TemperatureF,Dew PointF,Humidity,Sea Level PressureIn,VisibilityMPH,Wind Direction,Wind SpeedMPH,Gust SpeedMPH,PrecipitationIn,Events,Conditions,WindDirDegrees,DateUTC
12:53 AM,-18.9,-25.1,74,30.29,10.0,Calm,Calm,-,N/A,,Clear,0,2012-11-27 09:53:00
1:53 AM,-18.9,-25.1,74,30.27,10.0,Calm,Calm,-,N/A,,Clear,0,2012-11-27 10:53:00
3:53 AM,-20.9,-27.0,73,30.28,10.0,North,3.5,-,N/A,,Clear,10,2012-11-27 12:53:00
4:53 AM,-18.9,-25.1,74,30.28,10.0,Calm,Calm,-,N/A,,Clear,0,2012-11-27 13:53:00
5:53 AM,-20.0,-26.0,74,30.30,10.0,Calm,Calm,-,N/A,,Clear,0,2012-11-27 14:53:00
6:53 AM,-20.0,-27.0,70,30.30,10.0,NE,3.5,-,N/A,,Clear,40,2012-11-27 15:53:00
7:53 AM,-20.0,-26.0,74,30.30,10.0,Calm,Calm,-,N/A,,Clear,0,2012-11-27 16:53:00
8:53 AM,-20.0,-26.0,74,30.31,10.0,NE,3.5,-,N/A,,Clear,40,2012-11-27 17:53:00
9:53 AM,-20.2,-25.6,76,30.26,10.0,Calm,Calm,-,N/A,,Partly Cloudy,0,2012-11-27 18:53:00
10:29 AM,-20.2,-25.6,76,30.26,10.0,NE,3.5,-,N/A,,Partly Cloudy,40,2012-11-27 19:29:00
10:53 AM,-18.9,-25.1,74,30.33,10.0,Calm,Calm,-,N/A,,Partly Cloudy,0,2012-11-27 19:53:00
11:53 AM,-17.0,-23.1,74,30.34,10.0,Calm,Calm,-,N/A,,Partly Cloudy,0,2012-11-27 20:53:00
12:53 PM,-15.0,-22.0,71,30.34,10.0,Calm,Calm,-,N/A,,Partly Cloudy,0,2012-11-27 21:53:00
1:53 PM,-15.0,-20.9,75,30.35,10.0,Calm,Calm,-,N/A,,Scattered Clouds,0,2012-11-27 22:53:00
2:53 PM,-17.0,-20.9,82,30.35,10.0,Calm,Calm,-,N/A,,Scattered Clouds,0,2012-11-27 23:53:00
3:53 PM,-18.0,-24.0,74,30.36,10.0,Calm,Calm,-,N/A,,Scattered Clouds,0,2012-11-28 00:53:00
4:53 PM,-20.9,-27.0,73,30.38,10.0,Calm,Calm,-,N/A,,Scattered Clouds,0,2012-11-28 01:53:00
5:53 PM,-18.9,-25.1,74,30.39,7.0,Calm,Calm,-,N/A,,Scattered Clouds,0,2012-11-28 02:53:00
6:53 PM,-20.9,-27.0,73,30.39,7.0,Calm,Calm,-,N/A,,Scattered Clouds,0,2012-11-28 03:53:00
7:53 PM,-22.0,-27.9,74,30.40,7.0,Calm,Calm,-,N/A,,Partly Cloudy,0,2012-11-28 04:53:00
8:53 PM,-23.1,-29.0,74,30.41,7.0,Calm,Calm,-,N/A,,Partly Cloudy,0,2012-11-28 05:53:00
9:53 PM,-25.1,-31.0,74,30.43,7.0,North,3.5,-,N/A,,Partly Cloudy,360,2012-11-28 06:53:00
10:53 PM,-23.1,-29.0,74,30.42,7.0,Calm,Calm,-,N/A,,Partly Cloudy,0,2012-11-28 07:53:00
11:53 PM,-24.0,-29.9,74,30.43,10.0,Calm,Calm,-,N/A,,Partly Cloudy,0,2012-11-28 08:53:00